Regional Weather Roundup
Issued by NWS

Home | Current Version | Previous Version | Graphics & Text | Print | Product List | Glossary On
Versions: 1 2 3 4 5 6 7 8 9 10 11 12 13 14 15 16 17 18 19 20 21 22 23 24 25 26 27 28 29 30 31 32 33 34 35 36 37 38 39 40 41 42 43 44 45 46 47 48 49 50
138
ASUS45 KSLC 271710
RWRUT

UTAH REGIONAL WEATHER ROUNDUP
NATIONAL WEATHER SERVICE SALT LAKE CITY UT
1100 AM MDT WED JUL 27 2016

UTZ001>011-023>025-271800-

NORTHERN UTAH

CITY           SKY/WX    TMP DP  RH WIND       PRES   REMARKS
BRIGHAM CITY     N/A     85  29  13 CALM      30.15S
HILL AFB       SUNNY     85  35  17 E7        30.18S
LOGAN          SUNNY     77  37  23 VRB3      30.17F
OGDEN          SUNNY     87  35  15 CALM      30.15S
PROVO AIRPORT  SUNNY     84  46  26 VRB3      30.18S
SALT LAKE CITY SUNNY     91  33  12 CALM      30.13S
VERNAL         SUNNY     79  43  27 VRB3      30.23S
WENDOVER       SUNNY     90  36  14 SE6       30.15S
HEBER CITY     SUNNY     77  37  24 CALM      30.25F

$$

UTZ012>022-026-027-271800-

SOUTHERN/CENTRAL UTAH

CITY           SKY/WX    TMP DP  RH WIND       PRES   REMARKS
BLANDING       SUNNY     83  47  28 CALM      30.34S
BRYCE CANYON   SUNNY     82  37  20 VRB5      30.41S
CEDAR CITY     SUNNY     89  41  18 VRB5      30.22F
DELTA          SUNNY     86  32  14 NE5       30.17S
MILFORD        SUNNY     87  39  18 S5        30.19S
MOAB/CYNLANDS  SUNNY     89  42  19 SE7       30.14F
PRICE          SUNNY     85  38  18 SW3       30.26S
ST GEORGE      SUNNY     91  46  21 CALM      30.03F

$$

REGIONAL REPORTS     COLORADO/ARIZONA

CITY           SKY/WX    TMP DP  RH WIND       PRES   REMARKS
CRAIG, CO      SUNNY     81  40  23 NE6       30.29S
GRAND JUNCTION SUNNY     83  41  22 SE6       30.20S
RIFLE          SUNNY     80  43  26 N5        30.26F
MONTROSE       SUNNY     80  50  34 W6        30.28F
CORTEZ         SUNNY     84  45  25 S3        30.27F
PAGE, AZ       SUNNY     90  42  18 N3        30.13S
GRAND CANYON   SUNNY     88  39  17 CALM      30.33S
KINGMAN        SUNNY     99  47  17 SW14      30.05S HX  95
FLAGSTAFF      SUNNY     83  44  25 N5        30.36R

$$

REGIONAL REPORTS    NEVADA/IDAHO/WYOMING

CITY           SKY/WX    TMP DP  RH WIND       PRES   REMARKS
LAS VEGAS, NV  MOSUNNY  102  40  12 CALM      29.89S HX  97
ELY            SUNNY     81  26  13 N7        30.31S
ELKO           SUNNY     82  33  17 VRB5      30.21F
POCATELLO, ID  SUNNY     75  46  35 NW7       30.19S
BURLEY         SUNNY     77  47  34 MISG      30.14F
EVANSTON, WY   SUNNY     82  23  11 W16G28    30.35S
ROCK SPRINGS   SUNNY     77  27  15 SW7       30.32S
KEMMERER         N/A     81  21  11 W8        30.36S

$$




USA.gov is the U.S. government's official web portal to all federal, state and local government web resources and services.